Weather History for Prairie Du Chien, WI

Change the Weather History Date:

Thursday, October 17, 2013

  Actual Average Record
Temperature  
Mean Temperature 50 °F -  
Max Temperature 58 °F 62 °F 85 °F (1953)
Min Temperature 42 °F 39 °F 23 °F (1992)
Degree Days  
Heating Degree Days 16    
Moisture  
Dew Point 39 °F    
Average Humidity 71    
Maximum Humidity 88    
Minimum Humidity 39    
Precipitation  
Precipitation 0.00 in - - ()
Sea Level Pressure  
Sea Level Pressure 29.86 in    
Wind  
Wind Speed 2 mph (WSW)    
Max Wind Speed 9 mph    
Max Gust Speed -    
Visibility 10 miles    
Events      
Averages and records for this station are not official NWS values.
T = Trace of Precipitation, MM = Missing Value Source: NWS Daily Summary

Daily Weather History Graph

Daily Weather History Graph

Search for Another Location

Airport:

Trip Planner

Search our weather history database for the weather conditions in past years. The results will help you decide how hot, cold, wet, or windy it might be!

Date:

Astronomy

Oct. 17, 2013 Rise Set
Actual Time 7:20 AM CDT 6:18 PM CDT
Civil Twilight 6:52 AM CDT 6:46 PM CDT
Nautical Twilight 6:19 AM CDT 7:19 PM CDT
Astronomical Twilight 5:46 AM CDT 7:52 PM CDT
Moon 5:33 PM CDT (10/17) 5:51 AM CDT (10/17)
Length of Visible Light 11h 54m
Length of Day
10h 57m
Waxing Gibbous, 98% of the Moon is Illuminated
Oct 17
Waxing Gibbous
Oct 18
Full
Oct 26
Last Quarter
Nov 3
New
Nov 9
First Quarter

Hourly Weather History & Observations

Time (CDT) Temp. Windchill Dew Point Humidity Pressure Visibility Wind Dir Wind Speed Gust Speed Precip Events Conditions
12:15 AM 47.5 °F - 41.2 °F 79% 29.93 in 10.0 mi Calm Calm - N/A   Overcast
12:35 AM 47.5 °F - 41.9 °F 81% 29.93 in 10.0 mi Calm Calm - N/A   Overcast
12:55 AM 46.9 °F - 42.4 °F 84% 29.93 in 10.0 mi Calm Calm - N/A   Overcast
1:15 AM 47.3 °F - 41.9 °F 82% 29.93 in 10.0 mi WSW 4.6 mph - N/A   Overcast
1:35 AM 46.9 °F - 41.7 °F 82% 29.92 in 10.0 mi Calm Calm - N/A   Overcast
1:55 AM 46.9 °F - 41.4 °F 81% 29.92 in 10.0 mi West 4.6 mph - N/A   Overcast
2:15 AM 46.6 °F - 41.2 °F 81% 29.92 in 10.0 mi WNW 4.6 mph - N/A   Overcast
2:35 AM 46.4 °F 44.3 °F 40.1 °F 79% 29.91 in 10.0 mi West 4.6 mph - N/A   Overcast
2:55 AM 46.4 °F - 39.2 °F 76% 29.91 in 10.0 mi Calm Calm - N/A   Overcast
3:15 AM 45.9 °F - 40.1 °F 80% 29.91 in 10.0 mi Calm Calm - N/A   Overcast
3:35 AM 45.7 °F - 40.5 °F 82% 29.90 in 10.0 mi Calm Calm - N/A   Overcast
3:55 AM 45.5 °F 44.2 °F 41.4 °F 85% 29.89 in 10.0 mi West 3.5 mph - N/A   Overcast
4:15 AM 45.1 °F - 41.2 °F 86% 29.89 in 10.0 mi Calm Calm - N/A   Overcast
4:35 AM 45.1 °F - 41.4 °F 87% 29.89 in 10.0 mi Calm Calm - N/A   Overcast
4:55 AM 45.0 °F - 41.5 °F 88% 29.89 in 10.0 mi Calm Calm - N/A   Overcast
5:15 AM 45.0 °F 43.5 °F 39.6 °F 81% 29.89 in 10.0 mi West 3.5 mph - N/A   Overcast
5:35 AM 44.8 °F - 39.4 °F 81% 29.89 in 10.0 mi Calm Calm - N/A   Overcast
5:55 AM 44.8 °F - 39.2 °F 81% 29.89 in 10.0 mi Calm Calm - N/A   Overcast
6:15 AM 44.8 °F - 39.4 °F 81% 29.89 in 10.0 mi Calm Calm - N/A   Overcast
6:35 AM 44.8 °F - 40.3 °F 84% 29.88 in 10.0 mi Calm Calm - N/A   Overcast
6:55 AM 44.8 °F - 40.1 °F 84% 29.88 in 10.0 mi Calm Calm - N/A   Overcast
7:15 AM 45.0 °F - 41.0 °F 86% 29.88 in 10.0 mi Calm Calm - N/A   Overcast
7:35 AM 45.0 °F - 40.5 °F 84% 29.87 in 10.0 mi Calm Calm - N/A   Overcast
7:55 AM 44.8 °F - 41.0 °F 87% 29.88 in 10.0 mi Calm Calm - N/A   Scattered Clouds
8:15 AM 45.1 °F - 41.0 °F 85% 29.88 in 10.0 mi Calm Calm - N/A   Scattered Clouds
8:35 AM 45.5 °F - 40.5 °F 83% 29.88 in 10.0 mi Calm Calm - N/A   Mostly Cloudy
8:55 AM 45.7 °F - 40.5 °F 82% 29.88 in 10.0 mi Calm Calm - N/A   Mostly Cloudy
9:15 AM 45.9 °F - 40.8 °F 83% 29.88 in 10.0 mi Calm Calm - N/A   Overcast
9:35 AM 46.4 °F - 40.8 °F 81% 29.88 in 10.0 mi Calm Calm - N/A   Mostly Cloudy
9:55 AM 46.6 °F - 40.3 °F 79% 29.87 in 10.0 mi Calm Calm - N/A   Scattered Clouds
10:15 AM 47.5 °F - 41.9 °F 81% 29.88 in 10.0 mi Calm Calm - N/A   Scattered Clouds
10:35 AM 48.0 °F - 41.2 °F 77% 29.87 in 10.0 mi Calm Calm - N/A   Scattered Clouds
10:55 AM 49.5 °F - 40.3 °F 71% 29.87 in 10.0 mi Calm Calm - N/A   Clear
11:15 AM 50.5 °F - 40.6 °F 69% 29.86 in 10.0 mi SSW 4.6 mph - N/A   Clear
11:35 AM 52.3 °F - 41.0 °F 65% 29.86 in 10.0 mi South 3.5 mph - N/A   Clear
11:55 AM 53.2 °F - 40.1 °F 61% 29.86 in 10.0 mi SSW 4.6 mph - N/A   Scattered Clouds
12:15 PM 53.6 °F - 39.2 °F 58% 29.85 in 10.0 mi WSW 3.5 mph - N/A   Scattered Clouds
12:35 PM 55.0 °F - 38.5 °F 54% 29.84 in 10.0 mi SW 9.2 mph - N/A   Scattered Clouds
12:55 PM 54.5 °F - 36.7 °F 51% 29.84 in 10.0 mi SW 3.5 mph - N/A   Scattered Clouds
1:15 PM 56.3 °F - 34.2 °F 43% 29.84 in 10.0 mi West 4.6 mph - N/A   Mostly Cloudy
1:35 PM 55.8 °F - 34.5 °F 45% 29.83 in 10.0 mi West 5.8 mph - N/A   Mostly Cloudy
1:55 PM 57.0 °F - 32.7 °F 40% 29.82 in 10.0 mi WSW 8.1 mph - N/A   Mostly Cloudy
2:15 PM 56.5 °F - 32.4 °F 40% 29.82 in 10.0 mi West 5.8 mph - N/A   Mostly Cloudy
2:35 PM 57.0 °F - 32.4 °F 39% 29.81 in 10.0 mi West 9.2 mph - N/A   Scattered Clouds
2:55 PM 57.4 °F - 32.9 °F 40% 29.81 in 10.0 mi WSW 9.2 mph - N/A   Mostly Cloudy
3:15 PM 57.4 °F - 32.7 °F 39% 29.81 in 10.0 mi West 5.8 mph - N/A   Mostly Cloudy
3:35 PM 56.3 °F - 33.3 °F 42% 29.81 in 10.0 mi WNW 5.8 mph - N/A   Clear
3:55 PM 56.5 °F - 33.1 °F 41% 29.81 in 10.0 mi WNW 8.1 mph - N/A   Scattered Clouds
4:15 PM 56.5 °F - 32.4 °F 40% 29.81 in 10.0 mi West 4.6 mph - N/A   Scattered Clouds
4:35 PM 56.7 °F - 32.0 °F 39% 29.81 in 10.0 mi WSW 5.8 mph - N/A   Scattered Clouds
4:55 PM 56.3 °F - 32.4 °F 40% 29.80 in 10.0 mi WSW 5.8 mph - N/A   Clear
5:15 PM 55.8 °F - 33.3 °F 43% 29.81 in 10.0 mi Calm Calm - N/A   Clear
5:35 PM 54.7 °F - 37.4 °F 52% 29.81 in 10.0 mi SW 3.5 mph - N/A   Clear
5:55 PM 54.5 °F - 36.9 °F 51% 29.81 in 10.0 mi Calm Calm - N/A   Scattered Clouds
6:15 PM 52.2 °F - 39.2 °F 61% 29.82 in 10.0 mi Calm Calm - N/A   Clear
6:35 PM 49.5 °F - 39.9 °F 70% 29.82 in 10.0 mi Calm Calm - N/A   Clear
6:55 PM 48.7 °F - 39.7 °F 71% 29.82 in 10.0 mi Calm Calm - N/A   Clear
7:15 PM 47.3 °F - 39.2 °F 73% 29.82 in 10.0 mi East 3.5 mph - N/A   Clear
7:35 PM 46.4 °F 45.2 °F 38.8 °F 75% 29.82 in 10.0 mi ESE 3.5 mph - N/A   Clear
7:55 PM 45.5 °F 44.2 °F 38.8 °F 78% 29.82 in 10.0 mi East 3.5 mph - N/A   Clear
8:15 PM 45.3 °F - 38.3 °F 76% 29.82 in 10.0 mi Calm Calm - N/A   Clear
8:35 PM 43.7 °F - 38.5 °F 82% 29.82 in 10.0 mi Calm Calm - N/A   Clear
8:55 PM 43.0 °F 41.3 °F 38.8 °F 85% 29.82 in 10.0 mi East 3.5 mph - N/A   Clear
9:15 PM 42.6 °F 40.9 °F 38.3 °F 85% 29.82 in 10.0 mi ESE 3.5 mph - N/A   Scattered Clouds
9:35 PM 43.0 °F 41.3 °F 38.5 °F 84% 29.82 in 10.0 mi ESE 3.5 mph - N/A   Mostly Cloudy
9:55 PM 42.3 °F 40.5 °F 38.5 °F 86% 29.82 in 10.0 mi ESE 3.5 mph - N/A   Overcast
10:15 PM 42.8 °F 40.1 °F 38.7 °F 85% 29.82 in 10.0 mi ESE 4.6 mph - N/A   Mostly Cloudy
10:35 PM 43.2 °F 41.5 °F 39.2 °F 86% 29.82 in 10.0 mi ESE 3.5 mph - N/A   Overcast
10:55 PM 43.3 °F - 39.6 °F 87% 29.82 in 10.0 mi Calm Calm - N/A   Overcast
11:15 PM 43.7 °F - 39.9 °F 87% 29.82 in 10.0 mi Calm Calm - N/A   Overcast
11:35 PM 43.7 °F - 40.3 °F 88% 29.82 in 10.0 mi Calm Calm - N/A   Overcast
11:55 PM 44.1 °F - 40.3 °F 87% 29.82 in 10.0 mi Calm Calm - N/A   Overcast